Zurück zum Katalog

OPS 4682 DEB

AktivPO
NORAD 27545·DEBRIS·🇺🇸 United States

Gestartet Apr 3, 1965 von Vandenberg Space Force Base

Loading…

Nächste Überflüge (nächste 24 Stunden)

TLE

AktuellSource: Space-Track

Epoche: Sep 12, 2026, 07:22 UTC

1 27545U 65027BH  26255.30703319  .00000911  00000-0  32064-2 0  9997
2 27545  90.2522   9.2902 0019292  15.2868  11.7827 12.95338581166532

Verfolge OPS 4682 DEB in Echtzeit mit AllMySat

Download on the App Store